Flag for U.S.A. Weather past 2 weeks in San Antonio, Texas, U.S.A.

Now
77 °F

Passing clouds.


Feels Like: 78 °F
Forecast: 75 / 97 °F
Wind: 9 mph from South

Location: San Antonio International Airport

Current Time: Jul 28, 2014 at 6:35:36 AM

Latest Report: Jul 28, 2014 at 5:51 AM


Visibility: 10 mi

Pressure: 30.04 "Hg

Humidity: 88%

Dew point: 73 °F

Location of San AntonioLocation

Historic Weather in San Antonio — Graph

°F

San Antonio temperature yesterday

Maximum temperature yesterday: 97 °F (at 4:51 PM)
Minimum temperature yesterday: 75 °F (at 4:51 AM)
Average temperature yesterday: 86 °F

Past Weeks' High & Low Weather Summary

 TemperatureHumidityPressure
High98 °F (Jul 14, 4:51 PM)94% (Jul 18, 1:56 AM)30.08 "Hg (Jul 18, 1:56 AM)
Low73 °F (Jul 18, 2:02 AM)27% (Jul 14, 4:51 PM)29.72 "Hg (Jul 17, 7:51 PM)
Average84 °F66%29.94 "Hg
* Reported Jul 13 4:51 AM — Jul 28 4:51 AM, San Antonio, Weather by CustomWeather, © 2014

Note: Actual official high and low records may vary slightly from our data, if they occured in-between our weather recording intervals... More about our weather records

Advertising

San Antonio weather history for previous 24 hours

 ConditionsComfort  
Time TempWeatherWind HumidityBarometerVisibility
4:51 AM
Jul 28
77 °FPassing clouds.7 mph85%30.02 "Hg10 mi
3:51 AM77 °FClear.8 mph82%30.01 "Hg10 mi
2:51 AM79 °FClear.8 mph77%30.01 "Hg10 mi
1:51 AM78 °FClear.7 mph76%30.03 "Hg10 mi
12:51 AM80 °FClear.7 mph69%30.02 "Hg10 mi
11:51 PM
Jul 27
83 °FClear.13 mph63%30.01 "Hg10 mi
10:51 PM86 °FClear.17 mph55%30.00 "Hg10 mi
9:51 PM88 °FClear.17 mph54%29.97 "Hg10 mi
8:51 PM91 °FPassing clouds.17 mph49%29.94 "Hg10 mi
7:51 PM94 °FPassing clouds.16 mph44%29.92 "Hg10 mi
6:51 PM96 °FPassing clouds.13 mph37%29.91 "Hg10 mi
5:51 PM97 °FPassing clouds.12 mph36%29.92 "Hg10 mi
4:51 PM97 °FPassing clouds.3 mph37%29.94 "Hg10 mi
3:51 PM96 °FPassing clouds.14 mph41%29.95 "Hg10 mi
2:51 PM94 °FPassing clouds.9 mph44%29.97 "Hg10 mi
1:51 PM93 °FPassing clouds.N/A49%29.99 "Hg10 mi
12:51 PM91 °FPassing clouds.9 mph52%30.00 "Hg10 mi
11:51 AM88 °FPassing clouds.10 mph59%30.02 "Hg10 mi
10:51 AM85 °FPassing clouds.9 mph65%30.03 "Hg10 mi
9:51 AM82 °FScattered clouds.12 mph72%30.03 "Hg10 mi
8:51 AM79 °FOvercast.8 mph82%30.03 "Hg10 mi
8:01 AM78 °FOvercast.6 mph84%30.08 "Hg10 mi
6:51 AM77 °FOvercast.7 mph85%29.99 "Hg10 mi
Weather by CustomWeather, © 2014

See weather overviewHow to use our weather pages